Location: Newark
(42.4678°N, 122.8017°W)
Time: 23:31:23
(UTC+00:00)

N. Korean satellite - Pass Details

Date: 06 October 2020
Orbit: 452 x 505 km, 97.2° (Epoch: 29 October)

Event Time Altitude Azimuth Distance (km) Brightness Sun altitude
Rises 13:04:30 0° 24° (NNE) 2,545 10.6 -13.7°
Reaches altitude 10° 13:06:52 10° 39° (NE) 1,650 9.9 -13.3°
Maximum altitude 13:09:49 24° 95° (E) 1,003 9.1 -12.8°
Drops below altitude 10° 13:12:42 10° 152° (SSE) 1,613 9.5 -12.2°
Sets 13:14:59 0° 166° (SSE) 2,474 10.3 -11.8°
